[[{"header":{"parameterUnit":"m.s-1","parameterCategory":1,"la1":30.2991,"la2":30.254,"lo1":-89.0895,"lo2":-89.0444,"dy":0.0017,"dx":0.0017,"nx":28,"ny":28,"refTime":"2024-07-29T03:00:00:Z","depth":0,"parameterNumber":2,"parameterNumberName":"U-component_of_WINDS"},"data":[0,0,0,0,0,0,0,0,0,0,0,0,0,0,0,0,0,0,0,0,0,0,0,0,0,0,0,0,0,0,0,0,0,0,0,0,0,0,0,0,0,0,0,0,0,0,0,0,0,0,0,0,0,0,0,0,0,0,3.3179,3.3181,0,3.3359,3.3361,3.3363,3.3341,3.3338,3.3335,3.3332,3.3522,3.353,3.3538,0,0,0,0,0,0,0,0,0,0,0,0,0,3.2822,3.2828,3.3179,3.3181,3.3184,3.3359,3.3361,3.3364,3.3341,3.3338,3.3334,3.3331,3.352,3.3529,3.3538,0,0,0,0,0,0,0,0,0,0,0,0,0,3.2987,3.2831,3.3179,3.3193,3.3197,3.3358,3.3361,3.3364,3.3342,3.3338,3.3333,3.3329,3.3517,3.3528,3.354,3.37,0,0,3.3575,3.358,0,0,0,0,0,0,0,0,3.2978,3.3,3.3189,3.3193,3.3196,3.3323,3.3305,3.3477,3.3343,3.3287,3.3332,3.3327,3.346,3.3476,3.352,3.3709,3.3717,3.3576,3.3583,3.3588,3.3592,0,0,0,0,0,0,0,3.2966,3.2992,3.325,3.3192,3.3196,3.3193,3.3212,3.3338,3.3396,3.3292,3.329,3.3312,3.3461,3.3508,3.3524,3.372,3.3576,3.3586,3.3594,3.3598,3.4052,3.4056,0,0,0,0,0,0,3.295,3.2983,3.3245,3.3256,3.3074,3.3203,3.3224,3.3287,3.3395,3.3407,3.3315,3.331,3.3491,3.351,3.3531,3.3727,3.3588,3.3599,3.3606,3.4047,3.4053,3.4058,0,0,0,0,0,0,3.2943,3.2974,3.3238,3.3119,3.3152,3.3214,3.3285,3.3293,3.334,3.3413,3.3423,3.3352,3.3488,3.3514,3.3658,3.3733,3.3605,3.3615,3.4041,3.4048,3.4055,3.4119,0,0,0,0,0,0,3.2932,3.2971,3.3031,3.3121,3.3159,3.336,3.3289,3.33,3.336,3.3354,3.345,3.3462,3.3486,3.3641,3.367,3.3747,3.3624,3.4034,3.4044,3.4053,3.4111,3.4128,3.4143,0,0,0,0,0,3.292,3.3043,3.3035,3.3066,3.3235,3.3365,3.3387,3.3411,3.3366,3.3428,3.3474,3.3459,3.372,3.3656,3.3688,3.377,3.403,3.4041,3.4052,3.4104,3.4125,3.4143,0,0,0,0,0,0,3.2963,3.3055,3.3047,3.3202,3.3276,3.3361,3.344,3.3432,3.3521,3.3513,3.3541,3.3563,3.3708,3.3753,3.368,3.3931,3.3869,3.3887,3.3897,3.3917,3.3933,3.392,3.3634,0,0,0,0,0,3.299,3.3086,3.3162,3.3292,3.3329,3.3378,3.3435,3.3447,3.3525,3.3557,3.3614,3.3692,3.3792,3.3857,3.3952,3.4117,3.4139,3.4189,3.4205,3.4218,3.4234,3.4326,3.435,3.4095,3.4095,3.4095,0,0,3.3049,3.3111,3.317,3.3302,3.3361,3.3461,3.3405,3.3513,3.3589,3.3574,3.3713,3.3758,3.3847,3.4002,3.4074,3.4044,3.4309,3.4232,3.4242,3.4251,3.434,3.4364,3.4386,3.4103,3.4102,3.41,0,0,3.3206,3.3262,3.3377,3.3436,3.3524,3.3556,3.3584,3.367,3.3699,3.3839,3.383,3.3921,3.4092,3.4156,3.4211,3.4393,3.4383,3.4423,3.4508,3.4597,3.4617,3.4635,3.4702,3.4725,3.4439,3.4439,3.4439,0,3.3268,3.3417,3.3437,3.3547,3.3606,3.3596,3.3714,3.3771,3.3887,3.3929,3.3894,3.4108,3.4168,3.4338,3.4383,3.4427,3.4461,3.4413,3.4612,3.463,3.4648,3.4711,3.4736,3.4443,3.4443,3.4442,3.4442,0,3.3489,3.3593,3.3675,3.3786,3.3854,3.3968,3.4007,3.4075,3.4081,3.4117,3.426,3.4331,3.4441,3.4482,3.449,3.4655,3.4634,3.4605,3.4543,3.4676,3.4737,3.4761,3.445,3.4448,3.4447,3.4446,0,0,3.368,3.3799,3.383,3.388,3.3977,3.4058,3.4172,3.4278,3.4336,3.4417,3.4514,3.4658,3.4633,3.4695,3.471,3.4788,3.493,3.475,3.4753,3.4783,3.5118,3.514,3.5168,3.4923,3.4928,3.4931,3.5111,0,3.3848,3.4046,3.4068,3.4247,3.4344,3.4336,3.4435,3.4506,3.4543,3.4632,3.4674,3.4776,3.4734,3.4771,3.4848,3.4896,3.4998,3.4883,3.5016,3.5021,3.4995,3.5199,3.5223,3.5389,3.5135,3.5139,3.5142,0,3.407,3.4156,3.4343,3.4427,3.4469,3.4557,3.4657,3.4741,3.4823,3.4844,3.4914,3.4919,3.5038,3.497,3.5136,3.5058,3.5114,3.5146,3.5153,3.5167,3.509,3.5221,3.5442,3.5468,3.5179,3.5176,3.5173,0,3.4193,3.4354,3.4488,3.4531,3.4632,3.4694,3.474,3.4816,3.4879,3.4967,3.5008,3.5109,3.5165,3.5244,3.5276,3.5223,3.5442,3.5376,3.5465,3.5464,3.5512,3.5509,3.5747,3.5546,3.5545,3.5545,3.5544,0,3.4379,3.4495,3.4544,3.4626,3.4756,3.4781,3.4909,3.4952,3.502,3.5113,3.5112,3.5199,3.5235,3.5329,3.5355,3.549,3.5515,3.5537,3.5544,3.5539,3.5536,3.5577,3.5567,3.5552,3.555,3.5549,3.5548,0,3.4538,3.4575,3.472,3.4803,3.4827,3.4919,3.4992,3.5072,3.5107,3.5224,3.5253,3.531,3.542,3.5459,3.5594,3.5611,3.5768,3.5764,3.574,3.5742,3.5829,3.5821,3.6103,3.6142,3.5913,3.5915,3.5917,0,3.4655,3.4744,3.4836,3.4896,3.4943,3.5041,3.5105,3.5133,3.5199,3.5299,3.5368,3.5477,3.5565,3.5742,3.5796,3.5899,3.5899,3.599,3.5914,3.5907,3.5902,3.5897,3.5907,3.6005,3.6007,3.6009,3.6011,0,3.486,3.4874,3.4964,3.5062,3.5137,3.5216,3.5292,3.5342,3.5382,3.5457,3.5568,3.5637,3.5773,3.5882,3.5987,3.6036,3.6032,3.6034,3.606,3.6057,3.604,3.6052,3.5781,3.6028,3.6026,3.6025,3.6024,3.6023,3.5003,3.5082,3.5159,3.526,3.532,3.5391,3.5471,3.5516,3.5608,3.572,3.5731,3.5852,3.5932,3.6073,3.6127,3.6223,3.6198,3.6236,3.6246,3.6255,3.6262,3.6023,3.6242,3.6242,3.6241,3.6241,3.6241,0,3.5209,3.5258,3.535,3.5456,3.5536,3.5522,3.5606,3.5674,3.5779,3.5854,3.594,3.6069,3.6175,3.6237,3.6344,3.6409,3.6409,3.6436,3.6432,3.6444,3.6278,3.6245,3.6434,3.6434,3.6434,3.6434,3.6433,3.6433,3.5326,3.5458,3.5481,3.5644,3.5693,3.5809,3.5858,3.5925,3.5984,3.6127,3.6214,3.6253,3.6324,3.6436,3.6533,3.6548,3.6588,3.6618,3.6632,3.6475,3.6456,3.6437,3.6406,3.6626,3.6626,3.679,3.6792,3.6793]},{"header":{"parameterUnit":"m.s-1","parameterCategory":1,"la1":30.2991,"la2":30.254,"lo1":-89.0895,"lo2":-89.0444,"dy":0.0017,"dx":0.0017,"nx":28,"ny":28,"refTime":"2024-07-29T03:00:00:Z","depth":0,"parameterNumber":3,"parameterNumberName":"V-component_of_WINDS"},"data":[0,0,0,0,0,0,0,0,0,0,0,0,0,0,0,0,0,0,0,0,0,0,0,0,0,0,0,0,0,0,0,0,0,0,0,0,0,0,0,0,0,0,0,0,0,0,0,0,0,0,0,0,0,0,0,0,0,0,-1.4729,-1.4729,0,-1.4789,-1.479,-1.4791,-1.4808,-1.4808,-1.4808,-1.4808,-1.4869,-1.4871,-1.4873,0,0,0,0,0,0,0,0,0,0,0,0,0,-1.4628,-1.463,-1.4729,-1.473,-1.473,-1.4789,-1.479,-1.4791,-1.4809,-1.4808,-1.4808,-1.4807,-1.4868,-1.4871,-1.4873,0,0,0,0,0,0,0,0,0,0,0,0,0,-1.4678,-1.463,-1.4729,-1.4746,-1.4748,-1.4789,-1.479,-1.4791,-1.4809,-1.4808,-1.4808,-1.4807,-1.4868,-1.487,-1.4873,-1.4901,0,0,-1.4882,-1.4883,0,0,0,0,0,0,0,0,-1.4676,-1.4682,-1.4743,-1.4745,-1.4748,-1.4791,-1.4777,-1.4828,-1.4809,-1.4786,-1.4808,-1.4807,-1.4843,-1.4848,-1.4861,-1.4904,-1.4906,-1.4882,-1.4884,-1.4885,-1.4886,0,0,0,0,0,0,0,-1.4672,-1.468,-1.4753,-1.4744,-1.4747,-1.4751,-1.4758,-1.4787,-1.4816,-1.4788,-1.4789,-1.4796,-1.4845,-1.4858,-1.4862,-1.4907,-1.4882,-1.4885,-1.4887,-1.4888,-1.4976,-1.4977,0,0,0,0,0,0,-1.4666,-1.4677,-1.4751,-1.4755,-1.471,-1.4753,-1.4761,-1.4777,-1.4816,-1.4822,-1.4796,-1.4797,-1.4853,-1.4859,-1.4864,-1.4899,-1.4885,-1.4888,-1.489,-1.4976,-1.4976,-1.4977,0,0,0,0,0,0,-1.4663,-1.4672,-1.4748,-1.4716,-1.4726,-1.4755,-1.4774,-1.4779,-1.4792,-1.4823,-1.4828,-1.4804,-1.4853,-1.486,-1.4892,-1.4901,-1.4889,-1.4892,-1.4975,-1.4976,-1.4977,-1.4969,0,0,0,0,0,0,-1.466,-1.4671,-1.4682,-1.4716,-1.4728,-1.4775,-1.4775,-1.478,-1.4797,-1.4798,-1.4832,-1.4837,-1.4853,-1.4887,-1.4895,-1.4905,-1.4894,-1.4974,-1.4975,-1.4976,-1.4968,-1.4969,-1.497,0,0,0,0,0,-1.4657,-1.4677,-1.4682,-1.4691,-1.4742,-1.4775,-1.4782,-1.48,-1.4798,-1.4809,-1.4829,-1.4836,-1.4899,-1.489,-1.4899,-1.491,-1.4974,-1.4975,-1.4976,-1.4968,-1.4969,-1.497,0,0,0,0,0,0,-1.4643,-1.4682,-1.4688,-1.472,-1.4744,-1.4778,-1.4792,-1.4801,-1.4826,-1.4826,-1.4847,-1.4855,-1.4885,-1.4901,-1.489,-1.4939,-1.4937,-1.494,-1.4927,-1.4929,-1.493,-1.4925,-1.4897,0,0,0,0,0,-1.4644,-1.4667,-1.47,-1.4725,-1.4737,-1.4763,-1.4778,-1.479,-1.4816,-1.4826,-1.4848,-1.4873,-1.4898,-1.4915,-1.494,-1.4971,-1.4978,-1.4983,-1.4984,-1.4985,-1.4987,-1.5004,-1.5007,-1.4981,-1.4981,-1.4981,0,0,-1.4645,-1.4669,-1.4683,-1.4723,-1.4743,-1.4767,-1.4771,-1.4797,-1.4815,-1.483,-1.4861,-1.4878,-1.4907,-1.4938,-1.4953,-1.4953,-1.4996,-1.4986,-1.4987,-1.4989,-1.5006,-1.5008,-1.5011,-1.4982,-1.4982,-1.4982,0,0,-1.466,-1.4681,-1.4704,-1.4724,-1.4755,-1.4772,-1.4778,-1.481,-1.4822,-1.4854,-1.4866,-1.4888,-1.4931,-1.4952,-1.4967,-1.4991,-1.4998,-1.4999,-1.5003,-1.502,-1.5022,-1.5024,-1.5032,-1.5035,-1.5001,-1.5001,-1.5001,0,-1.4658,-1.4695,-1.4715,-1.474,-1.4757,-1.4773,-1.4796,-1.4815,-1.4852,-1.4863,-1.4863,-1.4918,-1.4938,-1.4975,-1.498,-1.4993,-1.5,-1.4994,-1.502,-1.5022,-1.5024,-1.5032,-1.5035,-1.5001,-1.5001,-1.5001,-1.5001,0,-1.4691,-1.4716,-1.4731,-1.4767,-1.4786,-1.481,-1.4834,-1.4851,-1.4862,-1.4879,-1.4911,-1.4936,-1.4967,-1.4976,-1.4987,-1.5014,-1.5013,-1.5016,-1.5014,-1.5026,-1.5034,-1.5037,-1.5,-1.5,-1.5001,-1.5001,0,0,-1.4698,-1.4745,-1.475,-1.4766,-1.4801,-1.4821,-1.4846,-1.4877,-1.4891,-1.4916,-1.4937,-1.4974,-1.4977,-1.4995,-1.5009,-1.5024,-1.504,-1.5025,-1.5026,-1.5026,-1.5071,-1.5068,-1.5072,-1.5046,-1.5047,-1.5047,-1.5069,0,-1.4717,-1.4762,-1.4781,-1.4817,-1.4841,-1.4856,-1.4878,-1.4902,-1.4919,-1.4941,-1.496,-1.4986,-1.4988,-1.4999,-1.5015,-1.5035,-1.5049,-1.5034,-1.5065,-1.5066,-1.5057,-1.5076,-1.5072,-1.5092,-1.5072,-1.5073,-1.5073,0,-1.4744,-1.477,-1.4809,-1.4841,-1.4852,-1.4871,-1.4901,-1.4922,-1.495,-1.4961,-1.4982,-1.4994,-1.5021,-1.5018,-1.5055,-1.5044,-1.5058,-1.507,-1.5071,-1.5074,-1.507,-1.5078,-1.5098,-1.5101,-1.5078,-1.5078,-1.5077,0,-1.4745,-1.4789,-1.4818,-1.4832,-1.4871,-1.4884,-1.4901,-1.4928,-1.4945,-1.4971,-1.4982,-1.5011,-1.5026,-1.5048,-1.5068,-1.5064,-1.5103,-1.5101,-1.5113,-1.5112,-1.5119,-1.5119,-1.5141,-1.513,-1.513,-1.513,-1.513,0,-1.4763,-1.4786,-1.4819,-1.4836,-1.4863,-1.4885,-1.491,-1.4928,-1.4952,-1.4973,-1.4989,-1.5009,-1.5034,-1.5057,-1.5073,-1.5101,-1.5108,-1.5118,-1.5122,-1.5116,-1.5115,-1.5125,-1.5124,-1.5131,-1.5131,-1.513,-1.513,0,-1.4768,-1.479,-1.4823,-1.4857,-1.4867,-1.4884,-1.4914,-1.4932,-1.495,-1.4976,-1.4984,-1.5012,-1.504,-1.5063,-1.5099,-1.511,-1.5139,-1.5144,-1.513,-1.5132,-1.5142,-1.514,-1.5171,-1.5176,-1.5162,-1.5162,-1.5162,0,-1.4778,-1.4796,-1.4832,-1.4848,-1.4864,-1.4889,-1.4907,-1.493,-1.4947,-1.498,-1.4994,-1.5023,-1.5048,-1.5092,-1.5115,-1.5144,-1.5149,-1.5158,-1.5153,-1.5147,-1.5148,-1.5146,-1.5148,-1.5158,-1.5158,-1.5158,-1.5158,0,-1.4793,-1.4803,-1.4828,-1.4857,-1.4878,-1.4902,-1.4926,-1.4938,-1.4965,-1.4984,-1.5013,-1.5032,-1.5069,-1.5098,-1.5129,-1.5146,-1.5156,-1.5159,-1.5163,-1.5157,-1.5148,-1.5153,-1.513,-1.5158,-1.5158,-1.5158,-1.5158,-1.5158,-1.48,-1.4817,-1.4845,-1.4872,-1.4893,-1.4915,-1.4934,-1.4954,-1.4979,-1.5011,-1.5023,-1.5053,-1.5081,-1.5123,-1.5141,-1.5164,-1.5165,-1.5171,-1.5172,-1.5173,-1.5172,-1.5145,-1.517,-1.517,-1.517,-1.517,-1.517,0,-1.4815,-1.4834,-1.4859,-1.4893,-1.4914,-1.4923,-1.495,-1.4968,-1.4993,-1.5019,-1.5042,-1.5076,-1.5104,-1.513,-1.5159,-1.5173,-1.5179,-1.518,-1.5179,-1.5183,-1.517,-1.5163,-1.5175,-1.5175,-1.5175,-1.5175,-1.5175,-1.5175,-1.4826,-1.4854,-1.4868,-1.4908,-1.4927,-1.4956,-1.4971,-1.4992,-1.5012,-1.5048,-1.5072,-1.5089,-1.5114,-1.5146,-1.5172,-1.5179,-1.5189,-1.5189,-1.5197,-1.5184,-1.5184,-1.5183,-1.5177,-1.5191,-1.5191,-1.5208,-1.5208,-1.5208]}]]